Total_Precipitation_Accumulation
0.07 0.17 0.32 0.39 0.66 1.25 1.28 1.00 0.58 0.38 0.38 0.45 0.46 0.46 0.59 0.71 0.94 1.68 1.55 1.32 0.87 0.79 1.00 1.06 1.02 0.88 0.81 0.80 0.82 0.82 0.76 0.71 0.78 0.80 0.82 0.87 0.91 0.87 0.91 1.03 1.14 1.23 1.29 1.35 1.45 1.41 1.30 1.02 0.87
0.08 0.17 0.28 0.37 0.89 1.48 1.25 0.92 0.52 0.39 0.33 0.43 0.53 0.46 0.61 0.65 0.60 0.93 1.21 1.08 0.69 0.59 0.75 0.77 0.80 0.75 0.66 0.60 0.64 0.75 0.74 0.74 0.80 0.89 0.97 1.02 1.10 1.09 1.10 1.12 1.18 1.27 1.29 1.31 1.35 1.26 1.07 0.86 0.75
0.07 0.12 0.25 0.38 0.89 1.09 0.87 0.63 0.37 0.32 0.26 0.32 0.45 0.39 0.56 0.84 0.72 0.89 1.01 0.84 0.61 0.54 0.64 0.72 0.66 0.59 0.59 0.55 0.56 0.69 0.79 0.83 0.82 0.90 1.01 1.11 1.28 1.26 1.29 1.35 1.44 1.44 1.34 1.25 1.19 1.15 0.93 0.75 0.67
0.05 0.11 0.19 0.32 0.58 0.62 0.47 0.41 0.30 0.29 0.27 0.27 0.38 0.51 0.76 0.76 0.72 0.83 0.82 0.72 0.50 0.46 0.52 0.53 0.60 0.59 0.57 0.58 0.58 0.63 0.74 0.80 0.83 0.87 1.00 1.09 1.29 1.44 1.50 1.49 1.53 1.47 1.27 1.16 1.08 1.01 0.81 0.71 0.69
0.03 0.10 0.19 0.27 0.34 0.43 0.38 0.34 0.28 0.29 0.26 0.32 0.44 0.76 1.13 0.98 0.73 0.72 0.70 0.63 0.50 0.44 0.49 0.50 0.54 0.57 0.59 0.58 0.63 0.67 0.67 0.75 0.74 0.72 0.82 0.98 1.18 1.46 1.49 1.46 1.41 1.27 1.18 1.12 1.05 0.93 0.77 0.74 0.73
0.02 0.06 0.17 0.19 0.24 0.30 0.31 0.26 0.26 0.24 0.26 0.39 0.57 0.85 1.14 1.09 0.95 0.92 0.91 0.78 0.73 0.56 0.46 0.51 0.60 0.58 0.55 0.52 0.58 0.62 0.65 0.67 0.70 0.68 0.74 0.92 1.09 1.23 1.28 1.27 1.20 1.11 1.11 1.08 1.03 0.92 0.79 0.71 0.67
0.02 0.04 0.09 0.11 0.16 0.20 0.23 0.21 0.22 0.23 0.32 0.49 0.66 0.99 1.15 1.28 1.18 1.06 1.19 1.27 1.06 0.77 0.59 0.56 0.55 0.51 0.51 0.56 0.57 0.62 0.66 0.73 0.76 0.76 0.84 1.01 1.03 1.09 1.08 1.11 1.11 1.11 1.09 1.08 0.97 0.83 0.71 0.64 0.59
0.02 0.04 0.07 0.07 0.09 0.16 0.15 0.16 0.17 0.22 0.36 0.46 0.62 1.00 1.27 1.17 1.20 1.23 1.41 1.54 1.44 1.06 0.84 0.68 0.67 0.67 0.57 0.54 0.65 0.70 0.77 0.86 0.92 0.93 1.01 1.15 1.14 1.11 1.15 1.12 1.12 1.13 1.17 1.13 0.98 0.76 0.63 0.60 0.60
0.02 0.04 0.05 0.05 0.06 0.11 0.10 0.15 0.19 0.17 0.23 0.40 0.57 0.85 0.94 0.88 1.02 1.16 1.38 1.55 1.72 1.50 1.12 0.90 0.82 0.85 0.80 0.68 0.68 0.82 0.89 0.99 1.04 1.18 1.29 1.43 1.45 1.35 1.44 1.32 1.38 1.33 1.36 1.27 1.13 0.96 0.84 0.75 0.72
0.01 0.02 0.03 0.03 0.04 0.05 0.08 0.13 0.18 0.16 0.35 0.61 0.73 0.83 0.75 0.88 0.98 1.18 1.33 1.42 1.58 1.67 1.25 1.12 0.94 0.84 0.85 0.96 1.21 1.26 1.08 1.21 1.42 1.65 1.78 2.00 1.98 1.88 1.56 1.65 1.78 1.88 1.99 1.84 1.68 1.57 1.24 1.03 0.97
0.01 0.02 0.02 0.02 0.02 0.03 0.08 0.08 0.14 0.18 0.50 0.96 1.11 1.11 1.02 0.98 1.11 1.36 1.58 1.61 1.51 1.58 1.34 1.25 1.22 1.20 1.08 1.22 1.40 1.48 1.47 1.61 1.73 1.83 1.95 2.08 1.83 1.73 1.72 1.84 2.07 2.21 2.27 2.13 2.18 2.15 1.82 1.75 1.75
0.00 0.01 0.01 0.02 0.01 0.03 0.06 0.07 0.12 0.21 0.50 0.79 1.07 1.04 1.17 1.13 1.21 1.45 1.75 1.91 1.92 2.03 1.75 1.58 1.61 1.52 1.43 1.42 1.55 1.59 1.63 1.64 1.75 1.92 1.86 1.98 2.11 2.07 2.09 2.26 2.27 2.35 2.48 2.75 2.43 2.56 2.44 2.27 2.15
0.00 0.01 0.01 0.02 0.02 0.03 0.06 0.13 0.15 0.25 0.37 0.57 0.83 0.83 0.87 1.17 1.54 1.91 2.25 2.24 2.39 2.57 2.49 2.20 1.96 1.78 1.76 1.90 1.90 1.80 1.85 1.86 2.00 2.17 2.11 2.11 2.34 2.41 2.44 2.43 2.51 2.32 2.43 2.71 2.80 2.63 2.83 2.91 2.71
0.00 0.01 0.01 0.02 0.03 0.04 0.08 0.20 0.27 0.35 0.44 0.51 0.77 1.00 1.05 1.38 1.72 2.27 2.91 2.80 2.57 2.75 2.84 2.64 2.42 2.26 2.25 2.40 2.48 2.35 2.14 2.29 2.39 2.39 2.24 2.29 2.53 2.78 2.88 2.75 2.80 2.59 2.50 2.65 2.77 2.78 3.34 3.27 3.12
0.01 0.02 0.03 0.06 0.07 0.10 0.16 0.35 0.49 0.51 0.49 0.57 0.87 1.18 1.40 1.56 1.89 2.22 2.59 2.91 3.04 3.13 3.05 2.99 2.92 2.82 2.88 2.86 2.82 2.61 2.52 2.42 2.50 2.57 2.60 2.58 2.62 2.90 3.00 3.02 2.95 2.78 2.65 2.81 2.86 3.07 3.32 3.06 2.92
0.02 0.03 0.07 0.10 0.11 0.13 0.20 0.59 0.60 0.50 0.52 0.83 1.03 1.36 1.63 1.72 1.99 2.39 2.72 3.24 3.48 3.50 3.48 3.43 3.26 3.29 3.32 3.29 3.19 2.99 2.84 2.66 2.51 2.51 2.67 2.69 2.77 2.94 3.11 2.96 2.81 2.93 2.96 3.08 3.29 3.37 3.36 3.23 3.11
0.04 0.05 0.09 0.13 0.13 0.12 0.20 0.44 0.58 0.53 0.74 1.02 1.26 1.57 1.86 2.11 2.55 3.03 3.27 3.38 3.73 4.03 4.18 4.16 4.05 3.84 3.61 3.54 3.54 3.56 3.49 3.21 2.89 2.82 2.83 2.84 2.73 2.81 3.04 2.98 3.00 3.06 3.12 3.16 2.91 3.34 3.33 3.32 3.19
0.05 0.07 0.12 0.16 0.15 0.15 0.25 0.40 0.51 0.60 0.83 1.24 1.62 1.86 2.13 2.53 3.01 3.34 3.61 3.95 4.09 4.35 4.83 4.76 4.54 4.42 4.32 4.22 3.97 3.95 3.71 3.39 3.25 3.21 3.31 3.12 2.97 2.93 3.13 3.08 3.12 3.17 3.27 3.28 3.23 3.44 3.39 3.20 3.14
0.06 0.08 0.14 0.17 0.16 0.18 0.34 0.54 0.58 0.76 1.06 1.37 1.71 1.95 2.29 2.61 2.98 3.39 3.48 3.71 4.03 4.63 5.08 5.28 5.27 5.05 4.75 4.33 3.92 3.75 3.66 3.61 3.44 3.30 3.16 3.06 2.99 3.07 3.35 3.21 3.41 3.34 3.16 3.13 3.24 3.44 3.26 3.01 3.07
0.07 0.11 0.15 0.17 0.15 0.18 0.32 0.53 0.65 1.01 1.32 1.37 1.54 1.70 1.90 2.33 2.66 2.97 3.14 3.23 3.64 4.22 4.64 4.79 4.54 4.40 4.22 3.94 3.83 3.83 4.02 3.71 3.44 3.28 3.12 2.90 2.89 3.00 2.98 3.23 3.10 3.09 3.20 3.13 3.15 3.38 3.16 2.74 2.86
0.05 0.07 0.12 0.18 0.17 0.24 0.35 0.67 0.89 1.14 1.28 1.32 1.42 1.58 1.69 1.97 2.29 2.60 2.71 2.87 3.07 3.17 3.43 3.59 3.74 3.66 3.54 3.52 3.49 3.53 3.73 3.48 3.26 3.10 3.02 2.71 2.58 2.59 2.69 2.76 2.81 3.09 3.08 3.10 3.18 3.14 3.01 2.70 2.62
0.06 0.07 0.07 0.09 0.17 0.31 0.45 0.98 1.23 1.21 1.26 1.40 1.40 1.39 1.64 1.93 1.92 2.03 2.24 2.42 2.66 2.78 2.97 3.03 3.06 3.18 3.22 3.30 3.19 3.02 2.91 2.80 2.71 2.76 2.73 2.70 2.57 2.48 2.49 2.53 2.56 2.63 2.61 2.73 2.51 2.61 2.83 2.93 2.63
0.05 0.05 0.06 0.10 0.20 0.33 0.45 0.77 1.16 1.51 1.58 1.40 1.34 1.24 1.44 1.58 1.48 1.46 1.64 1.78 2.00 2.18 2.42 2.57 2.69 2.78 2.91 2.97 2.88 2.84 2.62 2.60 2.63 2.62 2.66 2.61 2.55 2.53 2.50 2.50 2.46 2.32 2.24 2.37 2.39 2.54 2.56 2.57 2.51
0.04 0.07 0.13 0.25 0.43 0.67 0.57 0.70 1.09 1.46 1.72 1.46 1.26 1.18 1.28 1.25 1.22 1.34 1.45 1.54 1.68 1.92 2.10 2.24 2.38 2.44 2.56 2.61 2.64 2.60 2.55 2.55 2.53 2.50 2.49 2.47 2.47 2.38 2.34 2.33 2.30 2.17 2.16 2.24 2.32 2.41 2.35 2.37 2.46
0.06 0.13 0.46 0.82 1.11 1.13 0.73 0.78 1.14 1.15 1.18 1.19 1.15 1.19 1.20 1.13 1.06 1.07 1.17 1.32 1.49 1.69 1.80 1.87 2.00 2.08 2.10 2.16 2.21 2.22 2.30 2.41 2.28 2.18 2.20 2.19 2.06 1.96 2.03 1.96 2.03 2.02 2.06 2.10 2.20 2.27 2.25 2.34 2.46
0.11 0.15 0.50 0.77 0.83 0.94 0.82 1.09 1.42 1.14 1.06 0.99 1.06 1.16 1.14 1.00 0.91 0.95 1.07 1.13 1.20 1.37 1.55 1.59 1.70 1.81 1.95 1.99 1.97 1.99 2.01 2.03 1.93 1.97 1.95 1.92 1.72 1.64 1.81 1.96 1.98 1.97 1.97 2.00 2.20 2.09 2.10 2.25 2.29
0.15 0.18 0.23 0.44 0.49 0.71 0.91 1.21 1.38 1.08 1.05 1.16 1.28 1.25 1.16 0.94 0.78 0.79 0.82 0.87 0.89 0.99 1.12 1.25 1.51 1.66 1.74 1.81 1.82 1.76 1.72 1.76 1.77 1.81 1.92 1.84 1.80 1.67 1.75 1.81 1.93 1.97 2.05 2.15 2.23 2.09 2.22 2.43 2.33
0.15 0.16 0.19 0.36 0.54 0.75 0.89 1.26 1.55 1.50 1.34 1.28 1.35 1.19 0.91 0.76 0.65 0.60 0.62 0.63 0.70 0.78 0.87 1.01 1.24 1.35 1.44 1.59 1.65 1.52 1.67 1.79 1.81 1.79 1.68 1.66 1.68 1.69 1.64 1.64 1.72 1.75 1.82 1.96 2.11 2.04 2.16 2.40 2.36
0.19 0.21 0.29 0.40 0.44 0.65 1.01 1.23 1.18 1.23 1.16 1.21 1.19 1.01 0.75 0.63 0.57 0.57 0.57 0.61 0.67 0.72 0.83 0.99 1.23 1.37 1.36 1.46 1.55 1.57 1.67 1.78 1.80 1.72 1.61 1.60 1.60 1.65 1.60 1.61 1.62 1.59 1.55 1.63 1.79 1.81 2.00 2.03 2.02
0.17 0.19 0.28 0.42 0.42 0.46 0.70 0.92 0.67 0.72 0.74 0.81 0.85 0.74 0.64 0.61 0.58 0.64 0.67 0.68 0.69 0.78 0.88 1.01 1.16 1.34 1.40 1.51 1.68 1.82 1.77 1.71 1.72 1.70 1.61 1.53 1.47 1.54 1.61 1.67 1.57 1.44 1.46 1.56 1.59 1.67 1.87 1.92 1.90